TimeCET,TemperatureF,Dew PointF,Humidity,Sea Level PressureIn,VisibilityMPH,Wind Direction,Wind SpeedMPH,Gust SpeedMPH,PrecipitationIn,Events,Conditions,WindDirDegrees,DateUTC
12:00 AM,32.0,28.4,87,30.06,3.7,WSW,2.3,-,N/A,,Overcast,250,2013-02-18 23:00:00
2:00 AM,32.0,28.4,87,30.04,3.7,West,4.6,-,N/A,,Overcast,270,2013-02-19 01:00:00
3:00 AM,32.0,26.6,80,30.01,3.7,West,4.6,-,N/A,,Overcast,280,2013-02-19 02:00:00
4:00 AM,32.0,26.6,80,29.98,3.7,WSW,5.8,-,N/A,,Overcast,250,2013-02-19 03:00:00
5:00 AM,32.0,26.6,80,29.95,3.7,WSW,5.8,-,N/A,,Overcast,250,2013-02-19 04:00:00
6:00 AM,32.0,26.6,80,29.92,3.1,WSW,6.9,-,N/A,Snow,Light Snow,240,2013-02-19 05:00:00
7:00 AM,32.0,26.6,80,29.92,3.1,WSW,9.2,-,N/A,Snow,Light Snow,250,2013-02-19 06:00:00
7:35 AM,32.0,26.6,80,29.89,2.5,WSW,8.1,-,N/A,Snow,Light Snow,250,2013-02-19 06:35:00
8:20 AM,30.2,28.4,93,29.89,2.5,West,11.5,-,N/A,Snow,Light Snow,260,2013-02-19 07:20:00
8:41 AM,32.0,28.4,87,29.89,5.0,WSW,12.7,-,N/A,Snow,Light Snow,250,2013-02-19 07:41:00
9:00 AM,32.0,28.4,87,29.89,2.5,WSW,13.8,-,N/A,Snow,Light Snow,250,2013-02-19 08:00:00
9:27 AM,32.0,28.4,87,29.86,1.2,WSW,12.7,-,N/A,Snow,Light Snow,250,2013-02-19 08:27:00
9:35 AM,32.0,28.4,87,29.86,0.7,WSW,11.5,-,N/A,Snow,Light Snow,250,2013-02-19 08:35:00
10:00 AM,32.0,28.4,87,29.86,1.2,WSW,12.7,-,N/A,Snow,Light Snow,250,2013-02-19 09:00:00
10:19 AM,32.0,28.4,87,29.86,0.7,West,13.8,-,N/A,Snow,Light Snow,260,2013-02-19 09:19:00
11:00 AM,32.0,30.2,93,29.83,0.7,West,13.8,-,N/A,Snow,Light Snow,260,2013-02-19 10:00:00
12:00 PM,32.0,30.2,93,29.83,0.5,West,13.8,-,N/A,Snow,Snow,260,2013-02-19 11:00:00
1:00 PM,32.0,30.2,93,29.80,0.5,West,12.7,-,N/A,Snow,Snow,260,2013-02-19 12:00:00
2:00 PM,32.0,30.2,93,29.77,0.6,West,13.8,-,N/A,Snow,Snow,260,2013-02-19 13:00:00
3:00 PM,32.0,32.0,100,29.77,0.8,West,12.7,-,N/A,Snow,Snow,260,2013-02-19 14:00:00
4:00 PM,32.0,32.0,100,29.77,0.8,West,12.7,-,N/A,Snow,Snow,270,2013-02-19 15:00:00
4:05 PM,32.0,30.2,93,29.77,0.6,West,12.7,-,N/A,Snow,Snow,270,2013-02-19 15:05:00
5:00 PM,32.0,32.0,100,29.77,1.2,West,13.8,-,N/A,Snow,Light Snow,270,2013-02-19 16:00:00
6:00 PM,32.0,32.0,100,29.77,1.2,West,12.7,-,N/A,Snow,Light Snow,280,2013-02-19 17:00:00
6:16 PM,32.0,32.0,100,29.77,3.7,West,11.5,-,N/A,Snow,Light Snow,280,2013-02-19 17:16:00
7:00 PM,32.0,32.0,100,29.80,6.2,WNW,11.5,-,N/A,,Overcast,290,2013-02-19 18:00:00
8:00 PM,32.0,30.2,93,29.83,6.2,WNW,9.2,-,N/A,,Overcast,290,2013-02-19 19:00:00
9:00 PM,30.2,28.4,93,29.83,6.2,WNW,8.1,-,N/A,,Overcast,300,2013-02-19 20:00:00
10:00 PM,30.2,26.6,86,29.86,-9999.0,WNW,10.4,-,N/A,,Clear,290,2013-02-19 21:00:00
11:00 PM,30.2,26.6,86,29.89,-9999.0,West,9.2,-,N/A,,Clear,280,2013-02-19 22:00:00